Home > Weather > Novorossiysk > Past weeks

Flag for Russia Weather for the Past 2 Weeks in Novorossiysk, Russia

Now
48 °F

Passing clouds.


Feels Like: 45 °F
Forecast: 34 / 53 °F
Wind: 8 mph from Southeast

Location: Anapa / Vitiazevo

Current Time: Feb 10, 2016 at 11:04:25 AM

Latest Report: Feb 10, 2016 at 10:30 AM


Visibility: N/A

Pressure: 30.15 "Hg

Humidity: 76%

Dew point: 41 °F

Location of NovorossiyskLocation

Historic Weather in Novorossiysk — Graph

°F

Novorossiysk Temperature Yesterday

Maximum temperature yesterday: 50 °F (at 2:30 PM)
Minimum temperature yesterday: 30 °F (at 10:00 PM)
Average temperature yesterday: 40 °F

High & Low Weather Summary for the Past Weeks

 TemperatureHumidityPressure
High63 °F (Feb 4, 1:00 PM)100% (Jan 28, 7:00 AM)30.42 "Hg (Jan 28, 7:00 AM)
Low14 °F (Jan 27, 12:00 AM)45% (Jan 27, 10:30 AM)29.86 "Hg (Feb 1, 12:30 PM)
Average38 °F86%30.18 "Hg
* Reported Jan 26 10:00 AM — Feb 10 10:00 AM, Novorossiysk, Weather by CustomWeather, © 2016

Note: Actual official high and low records may vary slightly from our data, if they occured in-between our weather recording intervals... More about our weather records

Advertising

Novorossiysk Weather History for the Previous 24 Hours

 ConditionsComfort  
Time TempWeatherWind HumidityBarometerVisibility
10:00 AM
Wed, Feb 10
45 °FPassing clouds.8 mph81%30.18 "HgN/A
9:30 AM43 °FPassing clouds.6 mph87%30.18 "HgN/A
9:00 AM41 °FPassing clouds.6 mph93%30.18 "HgN/A
8:30 AM39 °FPassing clouds.6 mph93%30.18 "HgN/A
8:00 AM36 °FPassing clouds.6 mph100%30.18 "HgN/A
7:00 AM34 °FChilly.3 mph100%30.18 "HgN/A
6:30 AM36 °FChilly.6 mph93%30.18 "HgN/A
6:00 AM34 °FChilly.8 mph100%30.18 "HgN/A
5:30 AM34 °FChilly.6 mph93%30.21 "HgN/A
5:00 AM34 °FChilly.8 mph100%30.21 "HgN/A
4:30 AM34 °FChilly.6 mph100%30.21 "HgN/A
3:30 AM30 °FChilly.8 mph100%30.21 "HgN/A
3:00 AM30 °FChilly.6 mph100%30.21 "HgN/A
2:30 AM32 °FChilly.6 mph93%30.24 "HgN/A
2:00 AM32 °FChilly.6 mph93%30.21 "HgN/A
1:00 AM32 °FChilly.6 mph93%30.24 "HgN/A
12:30 AM32 °FChilly.6 mph100%30.24 "HgN/A
12:00 AM32 °FChilly.8 mph100%30.24 "HgN/A
11:30 PM
Tue, Feb 9
32 °FChilly.8 mph100%30.24 "HgN/A
11:00 PM32 °FChilly.6 mph93%30.24 "HgN/A
10:30 PM30 °FChilly.6 mph100%30.24 "HgN/A
10:00 PM30 °FChilly.6 mph93%30.24 "HgN/A
9:30 PM32 °FClear.6 mph100%30.27 "Hg10 mi
9:00 PM32 °FClear.6 mph100%30.27 "Hg10 mi
8:30 PM32 °FPassing clouds.6 mph93%30.27 "HgN/A
8:00 PM32 °FPassing clouds.6 mph93%30.27 "HgN/A
7:30 PM36 °FPassing clouds.6 mph87%30.27 "HgN/A
7:00 PM37 °FPassing clouds.6 mph87%30.30 "HgN/A
6:30 PM39 °FScattered clouds.3 mph87%30.30 "HgN/A
6:00 PM43 °FPassing clouds.3 mph81%30.30 "HgN/A
5:30 PM45 °FPassing clouds.6 mph76%30.27 "HgN/A
5:00 PM48 °FPassing clouds.6 mph66%30.27 "HgN/A
4:30 PM48 °FPassing clouds.6 mph66%30.27 "HgN/A
4:00 PM50 °FPassing clouds.6 mph67%30.30 "HgN/A
3:30 PM50 °FScattered clouds.3 mph62%30.30 "HgN/A
3:00 PM50 °FScattered clouds.8 mph67%30.30 "HgN/A
2:30 PM50 °FScattered clouds.8 mph67%30.30 "HgN/A
1:30 PM48 °FScattered clouds.10 mph66%30.30 "HgN/A
1:00 PM48 °FScattered clouds.3 mph71%30.30 "HgN/A
12:30 PM48 °FScattered clouds.6 mph71%30.33 "HgN/A
12:00 PM48 °FPartly sunny.8 mph71%30.33 "HgN/A
11:00 AM46 °FScattered clouds.6 mph76%30.33 "HgN/A
Weather by CustomWeather, © 2016

See weather overviewHow to use our weather pages